TimePDT,TemperatureF,Dew PointF,Humidity,Sea Level PressureIn,VisibilityMPH,Wind Direction,Wind SpeedMPH,Gust SpeedMPH,PrecipitationIn,Events,Conditions,WindDirDegrees,DateUTC
12:53 AM,37.9,35.1,89,30.24,10.0,Calm,Calm,-,N/A,,Overcast,0,2013-03-30 07:53:00
1:53 AM,37.0,34.0,89,30.25,10.0,SSW,3.5,-,N/A,,Clear,200,2013-03-30 08:53:00
2:53 AM,32.0,32.0,100,30.26,8.0,WNW,3.5,-,N/A,,Clear,300,2013-03-30 09:53:00
3:53 AM,30.0,28.9,96,30.27,10.0,Calm,Calm,-,N/A,,Clear,0,2013-03-30 10:53:00
4:53 AM,33.1,30.9,92,30.27,10.0,Calm,Calm,-,N/A,,Clear,0,2013-03-30 11:53:00
5:18 AM,26.6,26.6,100,30.25,1.8,Calm,Calm,-,N/A,,Partly Cloudy,0,2013-03-30 12:18:00
5:33 AM,26.6,26.6,100,30.25,3.0,Calm,Calm,-,N/A,,Partly Cloudy,0,2013-03-30 12:33:00
5:53 AM,30.0,28.0,92,30.28,10.0,Calm,Calm,-,N/A,,Clear,0,2013-03-30 12:53:00
6:25 AM,26.6,26.6,100,30.26,3.0,Calm,Calm,-,N/A,,Scattered Clouds,0,2013-03-30 13:25:00
6:27 AM,26.6,26.6,100,30.26,1.5,Calm,Calm,-,N/A,,Scattered Clouds,0,2013-03-30 13:27:00
6:29 AM,26.6,26.6,100,30.26,0.8,Calm,Calm,-,N/A,,Mist,0,2013-03-30 13:29:00
6:38 AM,26.6,24.8,93,30.26,0.2,Calm,Calm,-,N/A,Fog,Light Freezing Fog,0,2013-03-30 13:38:00
6:53 AM,25.0,24.1,96,30.31,0.5,Calm,Calm,-,N/A,Fog,Light Freezing Fog,0,2013-03-30 13:53:00
7:04 AM,24.8,24.8,100,30.27,0.2,Calm,Calm,-,N/A,Fog,Light Freezing Fog,0,2013-03-30 14:04:00
7:33 AM,30.2,30.2,100,30.27,1.0,Calm,Calm,-,N/A,,Mist,0,2013-03-30 14:33:00
7:35 AM,30.2,30.2,100,30.27,2.5,Calm,Calm,-,N/A,,Scattered Clouds,0,2013-03-30 14:35:00
7:38 AM,32.0,30.2,93,30.27,7.0,Calm,Calm,-,N/A,,Mostly Cloudy,0,2013-03-30 14:38:00
7:53 AM,35.1,34.0,96,30.31,10.0,Calm,Calm,-,N/A,,Partly Cloudy,0,2013-03-30 14:53:00
8:53 AM,43.0,37.9,82,30.30,10.0,Calm,Calm,-,N/A,,Clear,0,2013-03-30 15:53:00
9:53 AM,50.0,37.9,63,30.28,10.0,Calm,Calm,-,N/A,,Clear,0,2013-03-30 16:53:00
10:53 AM,53.1,35.1,50,30.28,10.0,Calm,Calm,-,N/A,,Clear,0,2013-03-30 17:53:00
11:53 AM,57.0,34.0,42,30.26,10.0,Variable,3.5,-,N/A,,Clear,0,2013-03-30 18:53:00
12:53 PM,61.0,30.9,32,30.23,10.0,NNE,6.9,-,N/A,,Clear,20,2013-03-30 19:53:00
1:53 PM,62.1,30.9,31,30.21,10.0,NE,4.6,-,N/A,,Clear,50,2013-03-30 20:53:00
2:53 PM,64.0,30.0,28,30.20,10.0,ENE,6.9,-,N/A,,Clear,60,2013-03-30 21:53:00
3:53 PM,64.0,30.0,28,30.17,10.0,WNW,4.6,-,N/A,,Clear,290,2013-03-30 22:53:00
4:53 PM,64.0,30.9,29,30.14,10.0,Calm,Calm,-,N/A,,Clear,0,2013-03-30 23:53:00
5:53 PM,64.0,30.0,28,30.14,10.0,Calm,Calm,-,N/A,,Clear,0,2013-03-31 00:53:00
6:53 PM,57.9,34.0,41,30.16,10.0,NNW,6.9,-,N/A,,Clear,330,2013-03-31 01:53:00
7:53 PM,48.9,35.1,59,30.16,10.0,WSW,5.8,-,N/A,,Clear,250,2013-03-31 02:53:00
8:53 PM,46.0,36.0,68,30.15,10.0,South,3.5,-,N/A,,Clear,190,2013-03-31 03:53:00
9:53 PM,39.9,33.1,77,30.16,10.0,Calm,Calm,-,N/A,,Clear,0,2013-03-31 04:53:00
10:53 PM,37.9,32.0,79,30.15,10.0,SSE,3.5,-,N/A,,Clear,150,2013-03-31 05:53:00
11:53 PM,36.0,30.9,82,30.14,10.0,Calm,Calm,-,N/A,,Clear,0,2013-03-31 06:53:00